Theta_e
314 314 313 311 311 313 313 314 314 312 309 308 308 308 310 311 312 311 310 309 309 310 309 308 309 308 306 307 308 307 305 304 303 301 299 299 297 295 294 293 293 294 292 289 288 289 290 291 291 290 290 290 289 289 288 287 287 287 287 287 286 286 285 285 285 285 285 285 285 285 285 284 284 283 281 280 280 279 279 278 278 278 277 277 277 277 277
313 311 309 308 309 310 310 310 311 311 308 306 306 307 307 307 307 308 307 307 306 306 305 305 306 305 305 306 305 302 301 303 304 303 300 298 296 295 294 293 292 292 290 288 288 289 290 290 291 290 290 289 289 288 288 288 287 287 287 286 286 285 285 284 285 285 285 285 285 284 284 284 283 282 281 280 280 280 279 279 278 278 278 277 276 276 276
311 306 305 305 305 307 308 308 308 306 305 305 305 306 305 304 305 305 304 304 303 302 302 302 303 304 304 303 303 302 302 303 303 301 299 298 296 294 293 292 291 290 287 286 287 288 289 290 290 290 289 289 288 288 288 287 287 287 287 286 285 285 285 285 285 285 284 284 284 284 284 283 282 281 280 280 280 279 279 279 279 278 278 277 276 275 275
312 303 301 303 302 302 303 304 304 302 303 305 304 303 303 304 304 303 303 304 303 301 302 302 303 304 303 301 302 304 303 300 299 301 301 299 297 295 292 290 291 290 287 285 286 287 288 290 290 289 289 288 288 288 287 287 287 287 286 286 285 285 285 285 285 284 284 284 284 283 283 282 280 280 279 279 279 279 278 278 278 277 277 276 275 275 274
309 299 299 302 302 304 305 304 303 301 301 303 302 301 302 302 302 303 303 303 302 300 301 300 300 302 302 300 300 301 301 298 298 300 302 301 299 295 292 291 291 290 287 285 286 288 289 289 289 289 289 288 288 288 287 287 286 286 286 285 285 285 285 285 284 284 284 283 282 282 281 280 279 279 278 278 278 277 277 276 276 276 275 274 274 273 272
306 297 298 302 304 308 307 302 303 302 300 300 300 300 299 299 300 302 301 300 300 299 300 300 299 300 300 300 298 298 299 300 299 299 299 300 298 294 293 293 290 287 286 287 288 289 289 289 290 289 289 288 288 287 287 286 286 286 286 285 285 285 284 284 284 283 282 281 280 280 279 278 278 278 277 277 276 276 276 275 275 274 274 273 272 271 270
302 297 300 305 306 306 302 299 300 301 298 298 298 298 297 297 298 298 298 299 299 299 300 299 298 297 295 295 295 294 295 297 299 298 296 297 297 297 297 295 289 285 287 289 289 289 290 290 289 289 288 288 287 286 286 286 285 285 285 285 284 284 284 283 283 282 281 280 279 279 278 277 277 277 276 276 275 275 274 274 273 273 272 271 270 269 268
300 298 302 307 306 302 299 299 298 296 295 296 296 296 297 296 296 297 297 297 298 299 298 296 294 293 291 291 293 294 293 293 294 295 295 296 296 295 294 292 289 288 290 290 290 290 289 289 288 288 287 287 286 286 285 285 284 284 284 284 283 283 282 282 281 281 280 279 278 278 277 276 276 275 275 274 274 274 273 273 272 271 271 270 269 268 268
303 302 302 304 305 303 302 302 298 295 296 298 298 297 298 297 296 296 297 298 298 297 295 293 292 291 290 290 292 294 293 293 292 291 291 293 291 289 288 289 289 290 291 290 290 290 289 288 288 287 287 286 286 285 284 284 284 283 283 283 282 282 281 280 280 279 278 277 277 276 276 275 275 274 274 273 273 272 271 271 270 270 269 268 267 267 267
305 303 303 304 304 304 304 301 298 296 297 300 299 297 298 300 299 297 297 299 298 295 293 292 291 290 291 293 293 293 293 293 292 289 287 286 287 288 288 289 289 289 289 289 289 289 288 287 287 286 286 285 284 284 283 283 283 283 282 281 281 280 279 278 278 277 276 276 275 275 274 274 273 273 272 272 271 270 269 269 269 268 267 267 266 266 266
304 304 305 304 303 304 304 301 297 294 294 297 298 296 299 301 299 296 296 297 297 295 293 291 290 291 294 295 294 294 294 292 291 291 288 285 287 289 289 289 289 289 289 288 288 287 287 286 286 285 284 284 283 283 283 282 282 281 280 280 279 278 277 276 276 275 274 274 274 273 273 273 272 272 271 270 270 268 267 267 267 266 266 265 265 265 265
304 303 303 302 302 302 300 298 295 292 292 296 297 296 299 301 297 293 295 298 299 297 292 290 291 294 295 296 295 295 294 289 286 288 288 287 287 289 289 289 289 289 288 287 287 286 286 286 285 284 283 282 282 282 281 281 280 280 279 278 278 277 276 275 274 273 273 273 273 272 272 272 271 270 270 269 268 267 266 266 265 265 264 264 264 264 265
302 303 302 300 300 300 297 295 294 293 294 296 297 297 300 301 296 291 294 300 299 294 291 290 292 293 294 294 294 294 292 290 287 286 287 288 288 289 289 289 289 288 287 287 287 286 286 285 284 283 282 281 281 281 280 280 279 278 278 277 276 276 275 274 273 273 273 272 272 272 271 271 270 269 268 267 267 266 265 265 264 264 263 263 263 263 263
299 300 300 298 299 300 297 294 292 293 294 297 299 299 298 300 299 292 292 297 296 291 290 291 291 292 292 291 292 292 292 291 289 287 285 286 287 287 287 287 288 287 286 285 285 285 285 284 283 282 281 281 280 280 279 279 278 277 276 276 275 274 273 273 273 272 272 272 272 271 271 270 269 268 267 267 266 265 265 264 263 263 263 263 262 262 262
298 297 297 296 297 296 294 293 292 293 296 300 303 299 294 296 300 297 293 294 292 290 290 290 289 291 291 289 290 291 290 290 288 286 285 285 286 286 286 286 286 286 285 285 285 284 284 283 282 281 280 280 279 279 279 277 276 276 275 275 274 273 272 272 272 272 271 271 271 271 270 269 267 267 267 266 265 265 265 264 263 262 262 262 262 262 262
297 296 297 297 297 295 293 293 295 295 296 299 303 301 295 294 296 297 296 294 290 288 291 290 289 289 289 289 289 289 289 289 287 285 284 284 285 286 286 286 287 286 285 284 283 283 282 281 280 280 280 279 278 278 277 276 275 275 274 274 273 272 272 271 271 271 270 270 270 270 269 268 266 266 266 266 265 265 264 263 262 262 262 262 261 261 261
295 295 297 296 295 294 292 294 296 296 295 297 298 298 297 297 294 292 295 296 291 287 288 290 289 289 288 288 288 288 288 288 286 284 284 284 285 286 286 286 286 285 285 284 282 281 280 279 279 279 278 278 277 277 276 275 274 274 273 272 272 271 271 270 270 270 270 270 270 269 268 267 265 265 266 265 264 264 263 263 262 261 261 261 261 261 261
294 293 294 293 292 292 293 294 296 295 295 295 295 293 295 297 296 293 293 296 294 289 288 288 288 289 288 288 288 287 287 287 285 283 283 284 284 285 285 285 285 284 283 282 280 279 278 278 277 277 277 277 276 276 275 274 273 273 272 271 271 270 270 270 269 269 269 269 269 269 268 266 265 265 265 264 263 263 263 262 262 261 261 261 261 262 262
294 294 293 291 291 293 293 293 294 294 294 293 292 292 293 294 295 294 294 295 294 291 288 288 289 289 288 288 288 287 287 287 286 283 282 283 284 284 284 285 284 282 281 279 279 278 278 277 276 276 276 276 275 275 274 273 272 271 271 270 270 269 269 269 269 268 268 268 268 268 267 266 265 265 265 264 263 262 262 262 262 261 261 262 262 263 263
293 294 293 290 290 291 291 291 293 293 293 292 290 290 291 291 292 293 292 291 292 291 289 288 288 289 288 288 288 288 287 287 285 283 282 283 283 283 284 283 282 281 280 279 279 278 277 277 276 275 275 275 274 273 272 271 270 270 270 269 268 268 268 268 268 267 267 267 267 266 266 265 264 264 265 265 263 263 263 263 262 262 262 263 264 265 265
291 292 291 290 290 291 291 291 291 291 292 292 290 290 290 290 291 291 289 287 287 289 289 289 288 288 289 288 288 288 288 287 285 283 283 283 283 282 282 282 281 281 281 280 279 278 277 276 276 275 275 274 273 272 271 270 269 269 269 268 267 268 267 267 267 267 267 267 266 265 264 264 264 264 265 265 264 263 264 264 263 263 265 265 266 267 267
292 292 291 291 292 292 292 291 290 290 289 290 290 289 289 289 290 291 290 288 286 285 286 286 287 289 289 288 287 287 287 286 284 284 283 283 282 281 281 280 280 281 281 280 278 277 277 276 275 274 274 273 271 270 270 269 268 268 268 267 267 267 267 267 266 266 266 266 265 264 263 263 263 264 266 267 265 263 263 264 265 265 266 267 268 269 269
293 293 292 292 291 292 292 291 291 290 289 289 289 290 289 290 290 289 290 290 289 287 285 283 285 288 288 286 286 287 286 284 284 284 284 283 282 281 279 279 279 278 278 278 277 276 276 275 274 273 273 271 270 269 269 268 268 267 267 266 266 266 266 266 266 265 265 265 264 263 263 262 261 261 263 267 269 268 265 264 265 266 267 267 268 268 268
292 292 292 291 291 291 291 291 291 291 290 290 290 290 289 290 289 288 288 289 289 290 289 285 283 284 285 284 284 286 285 283 283 284 284 283 282 281 279 278 278 278 276 276 276 275 274 274 273 272 272 270 269 268 268 267 267 266 266 265 265 265 265 265 265 265 264 263 263 262 262 261 261 260 260 262 267 270 269 266 265 265 266 267 267 268 267
291 292 291 290 291 291 291 290 291 290 289 289 290 290 289 288 287 286 288 289 286 286 289 288 285 283 283 282 283 284 283 283 283 283 283 281 280 279 277 277 278 278 277 276 275 274 273 272 271 271 270 270 269 268 267 267 266 266 265 265 265 264 264 264 264 264 264 263 262 261 261 260 260 260 260 259 261 264 268 269 269 268 267 266 265 266 266
291 291 291 291 291 291 290 289 290 291 288 287 288 289 287 285 285 285 285 286 284 283 285 286 285 284 283 282 282 282 282 282 282 282 281 279 277 277 276 277 277 277 275 274 273 272 272 271 269 269 269 269 268 267 267 266 266 265 265 264 264 264 264 263 263 263 263 262 261 261 261 260 260 260 260 260 259 260 261 264 267 269 270 269 267 265 265
291 291 291 291 291 291 290 289 290 291 289 287 288 289 285 283 284 284 283 283 283 283 283 283 283 283 283 282 282 282 281 280 279 279 279 278 276 276 276 276 275 274 273 273 272 271 270 269 268 268 269 269 267 266 266 266 265 265 264 264 264 264 264 263 262 262 262 262 261 260 260 260 260 259 259 260 260 260 260 260 261 262 265 268 268 266 264
292 290 290 290 291 291 291 290 289 290 290 288 288 287 284 283 284 285 286 286 284 282 281 282 281 280 280 281 280 279 278 277 276 276 276 275 275 275 274 273 273 273 272 271 271 269 268 268 267 268 269 268 266 266 265 265 265 264 264 264 263 264 264 263 263 262 262 262 261 260 260 259 259 260 260 260 259 259 260 260 260 260 260 262 265 266 265
291 290 289 290 290 291 291 290 290 290 290 288 286 285 286 286 287 288 288 287 285 283 283 281 280 278 278 279 278 276 275 275 274 274 274 273 273 273 272 272 271 271 270 269 268 268 267 267 266 268 269 267 265 265 265 264 264 264 263 263 263 264 264 264 263 263 263 263 261 260 260 259 259 259 259 259 259 259 259 259 260 260 260 260 262 263 264
291 291 290 290 289 290 290 290 290 291 290 289 288 288 288 288 288 288 287 285 284 285 283 280 277 277 276 276 276 276 275 274 274 274 273 272 271 271 270 270 269 267 266 267 267 267 266 266 266 268 268 266 265 265 264 264 264 263 263 263 264 264 263 263 263 263 263 262 261 260 260 259 259 259 259 259 259 259 259 259 259 259 260 260 260 261 262
292 292 292 291 290 289 290 289 289 289 289 288 288 288 287 286 287 287 287 285 285 284 281 278 276 274 274 274 274 275 274 274 273 272 270 270 269 269 268 269 268 266 266 267 267 267 266 266 267 268 268 265 264 264 264 263 263 263 263 263 263 263 263 262 262 262 262 261 261 260 260 260 259 259 259 259 259 259 259 259 259 259 259 259 260 260 261
292 292 292 291 289 288 288 288 288 289 289 288 288 288 287 286 286 287 286 286 284 282 280 279 277 274 273 273 272 272 272 271 270 269 268 267 267 266 266 267 267 267 267 267 267 266 266 266 267 268 266 264 264 264 263 263 263 262 263 263 263 263 262 262 262 262 262 261 260 260 260 260 259 259 258 258 259 259 259 259 259 259 259 259 260 261 261
292 292 292 291 289 288 287 287 286 287 288 287 287 287 287 286 285 286 286 284 282 280 278 277 275 273 272 271 270 269 268 267 266 265 265 265 265 265 264 265 265 265 265 265 265 264 264 265 266 266 264 263 264 263 262 262 262 262 262 263 262 262 262 262 261 261 261 260 260 260 260 259 259 258 259 259 258 258 259 259 259 259 259 259 260 261 261
292 292 292 292 291 290 289 288 287 286 287 287 286 286 286 284 283 284 282 280 280 280 277 274 273 271 270 269 268 266 266 267 266 264 263 263 264 263 263 263 263 263 263 264 264 264 264 264 265 264 263 263 263 262 262 262 262 262 262 262 262 262 262 261 261 261 261 261 261 260 259 259 259 258 258 258 258 258 259 259 259 259 259 260 261 261 261
292 291 291 292 291 290 289 289 288 287 286 286 286 285 284 281 279 279 277 276 276 277 274 271 270 269 267 266 265 263 264 266 267 264 262 263 263 262 261 261 261 261 262 263 264 264 264 264 263 263 263 263 262 262 262 262 261 262 262 262 262 262 262 262 261 261 261 261 261 260 259 259 259 259 258 258 258 258 259 259 259 259 259 260 260 261 261
289 290 291 290 289 289 289 289 288 289 288 286 285 286 284 277 273 273 273 272 271 271 270 268 267 266 264 264 263 263 263 264 264 263 263 262 262 261 261 260 261 261 261 263 264 264 264 263 263 263 263 263 262 262 261 261 261 261 261 261 261 261 261 261 261 261 260 260 260 260 260 259 259 259 258 259 259 259 259 259 259 259 259 260 260 260 261
286 288 291 290 287 287 285 280 276 277 279 277 276 279 278 271 266 268 269 267 267 268 268 266 265 264 263 263 263 263 263 263 263 262 262 261 260 260 260 260 260 259 259 260 263 263 262 262 262 262 262 262 262 261 261 261 261 261 261 261 261 261 261 261 260 260 260 260 260 259 259 259 259 259 259 259 259 259 259 259 260 260 260 260 260 260 260
281 279 280 279 275 272 270 266 265 268 272 272 267 266 267 265 263 264 265 264 264 265 265 265 264 263 262 262 262 262 262 262 261 261 260 259 259 259 259 259 260 259 259 260 262 262 261 261 260 260 260 261 261 261 261 261 260 260 260 260 260 260 260 260 260 260 260 260 260 259 259 259 259 260 260 260 260 260 260 260 260 260 260 261 260 260 260
281 275 271 268 265 261 259 260 261 263 267 268 263 259 260 262 263 262 262 261 262 264 264 264 263 262 261 260 260 260 260 260 259 259 259 258 258 258 258 259 260 260 260 261 261 260 260 261 260 259 259 260 260 260 260 260 260 260 260 260 260 260 260 260 260 260 260 260 259 259 259 259 260 260 260 260 260 260 260 260 260 260 261 261 260 260 261
284 276 269 267 265 262 260 260 259 258 260 262 261 259 259 261 261 260 260 260 261 263 264 263 262 260 259 259 259 258 258 258 258 258 258 257 257 257 257 258 261 261 260 260 260 259 260 260 260 259 260 260 260 260 260 260 260 260 259 259 259 259 259 259 259 259 260 260 260 260 260 260 260 260 261 261 261 261 261 261 260 261 261 260 260 261 261
274 268 264 264 263 260 259 259 258 257 257 259 259 259 260 260 260 259 258 259 260 261 262 262 261 260 259 259 259 258 258 258 258 258 257 257 257 256 255 257 261 261 259 259 259 259 259 259 259 259 260 260 259 260 260 259 259 259 259 259 259 259 259 259 259 259 260 260 260 260 260 260 260 261 261 261 261 261 261 261 261 261 260 260 261 261 261
266 263 263 263 260 257 256 258 257 257 257 257 257 258 260 260 260 259 258 258 259 260 260 260 260 260 259 259 259 259 258 258 258 258 257 258 258 256 255 257 260 260 259 259 259 258 258 259 259 259 259 260 259 259 259 259 259 259 259 259 259 259 259 259 259 259 260 260 260 260 260 260 260 260 261 261 261 261 261 261 261 261 261 260 260 260 261
261 261 262 261 258 256 256 257 257 256 256 256 257 259 260 260 261 260 259 259 259 259 258 259 259 258 259 259 259 259 259 258 258 258 258 259 259 258 257 258 260 259 259 259 259 258 259 259 259 259 259 259 259 259 259 259 258 259 259 259 259 259 259 259 259 259 259 259 260 260 260 260 260 260 260 260 261 261 260 260 260 260 260 260 260 260 261
257 258 258 257 256 256 256 256 256 257 256 256 257 259 259 259 260 260 259 259 259 258 258 258 258 258 258 259 259 259 259 258 258 258 258 258 259 259 259 258 259 259 259 259 259 259 259 259 259 259 259 259 259 259 259 258 258 258 258 259 259 259 259 259 259 259 260 260 260 260 260 260 260 260 260 260 260 260 260 260 260 260 260 260 260 260 261
256 256 256 256 256 257 256 256 257 257 256 256 257 258 258 258 258 259 259 259 259 258 258 259 258 258 259 259 258 259 258 258 258 258 257 257 258 259 259 258 258 258 258 259 259 259 259 259 259 259 259 259 259 259 258 258 258 259 259 259 259 259 259 259 259 259 260 260 260 260 260 260 260 260 260 260 260 260 260 260 260 260 260 260 260 260 260
255 256 256 256 256 256 256 256 256 256 256 256 257 257 257 258 258 258 258 258 258 258 258 259 258 258 258 258 258 258 258 258 259 259 258 258 259 259 258 258 258 258 258 259 259 259 259 259 259 259 259 259 259 259 259 259 259 259 259 259 259 259 259 259 259 259 260 260 260 260 260 260 260 260 260 260 260 260 260 260 260 260 260 260 260 260 260
255 255 255 254 254 255 256 256 256 256 257 259 258 257 257 258 258 258 258 258 258 258 259 259 259 259 259 258 259 259 259 259 259 259 259 259 259 259 258 258 258 258 258 259 259 259 259 259 259 259 259 259 259 259 259 259 259 259 259 259 259 259 259 259 259 260 260 260 260 260 260 260 260 260 260 260 260 260 260 259 259 260 260 260 260 260 260
254 253 253 254 254 255 256 257 256 255 256 257 258 257 257 257 258 258 258 258 258 259 259 259 259 259 259 259 259 259 259 259 259 259 259 259 259 259 259 258 258 258 259 259 259 259 259 259 259 259 259 259 259 259 259 259 259 259 259 259 259 259 260 260 260 260 260 260 260 260 260 260 260 260 260 260 260 260 260 260 260 260 260 260 260 260 260
253 253 253 254 255 256 256 256 255 254 255 256 257 257 257 258 258 258 258 258 259 259 259 259 259 259 259 259 259 259 259 259 259 259 259 259 258 259 259 259 259 259 259 259 259 259 259 259 259 259 259 259 259 259 259 259 259 259 259 259 259 260 260 260 260 260 260 260 260 260 260 260 260 260 260 260 260 260 260 260 260 260 260 260 260 260 260
253 253 254 254 255 255 256 256 255 255 256 257 257 257 257 258 258 258 258 258 258 258 258 259 259 259 259 259 259 259 259 259 259 259 259 259 259 259 259 259 259 259 259 259 259 259 259 259 259 259 259 259 259 259 259 259 259 259 259 259 259 260 260 260 260 260 260 260 260 260 260 260 260 260 260 260 260 260 260 260 259 259 260 259 260 260 259
254 254 254 255 255 256 257 257 256 256 257 257 257 257 258 258 258 258 258 258 258 258 258 258 259 259 259 259 259 259 259 259 259 259 259 259 259 259 259 259 259 259 259 259 259 259 259 259 259 259 259 259 259 259 259 259 259 259 259 259 259 260 260 260 260 260 260 260 260 260 260 260 259 259 259 259 259 259 259 259 259 259 259 259 259 259 259
256 256 255 256 256 256 256 257 257 257 257 257 257 257 258 258 258 258 258 258 258 258 258 258 259 259 259 259 259 259 259 259 259 259 259 259 259 259 259 259 259 259 259 259 259 259 259 259 259 259 259 259 259 259 259 259 259 259 259 259 259 259 259 259 259 259 259 259 259 259 259 259 259 259 259 259 259 259 259 259 259 259 259 259 259 259 259
Wind_Speed
6 3 4 5 5 3 4 6 9 7 7 8 8 7 8 8 6 9 5 5 6 8 6 7 8 7 6 6 7 6 4 4 5 5 7 7 7 6 7 8 9 9 9 11 15 17 18 20 21 21 22 22 21 21 20 19 18 17 16 14 13 11 9 7 6 6 8 10 13 15 18 21 23 25 27 28 29 30 31 31 30 31 31 31 32 33 33
4 3 3 4 5 3 3 6 9 6 5 7 7 9 10 7 6 8 6 5 9 9 7 7 7 6 5 5 5 4 4 6 7 7 7 7 6 7 8 9 9 9 10 12 14 15 17 20 22 22 23 23 23 23 22 20 19 19 17 15 14 12 10 8 7 8 10 12 15 17 20 23 25 27 28 29 31 32 32 32 32 32 32 32 32 32 34
2 1 0 2 3 3 5 10 10 3 3 5 9 10 6 2 6 9 7 8 11 10 6 5 5 5 4 5 7 6 6 7 6 6 6 6 6 7 8 8 8 7 8 10 12 14 18 21 23 24 24 23 23 23 22 20 19 18 16 15 14 12 10 8 8 10 12 14 17 19 22 24 26 27 29 30 31 32 32 33 33 33 33 33 33 33 34
3 1 2 2 2 1 6 13 11 5 5 8 9 6 5 7 9 9 6 7 10 8 1 2 5 6 5 6 7 7 6 5 5 6 6 6 7 8 7 7 6 6 7 10 13 16 20 23 24 25 24 22 22 21 20 19 16 14 14 13 13 11 9 9 10 12 15 17 19 21 23 25 26 27 28 29 30 31 31 32 33 33 33 33 33 33 34
2 1 2 3 4 2 7 11 9 11 11 12 9 4 7 10 8 6 7 8 8 4 2 2 6 6 6 7 7 6 6 5 6 6 6 6 7 6 6 6 6 7 9 13 17 20 22 23 24 24 24 22 21 20 18 16 14 14 13 13 11 10 9 11 13 15 17 19 20 22 23 24 26 27 28 28 29 30 30 31 32 32 32 32 33 33 33
2 0 1 4 2 5 6 2 4 11 12 13 12 10 9 8 7 6 6 5 4 3 4 7 9 7 6 6 6 6 5 5 6 5 5 6 6 5 5 6 6 9 12 15 18 20 21 22 23 23 22 21 20 18 16 15 15 14 13 12 11 10 11 13 15 16 18 19 20 22 22 24 25 26 26 27 27 28 29 30 31 32 32 32 32 31 31
2 0 1 3 6 6 3 1 2 5 7 8 8 7 8 9 9 8 7 7 7 7 8 8 7 5 5 4 5 6 5 6 6 6 6 6 5 5 5 5 7 11 14 15 16 17 18 19 20 19 19 17 17 16 16 16 15 14 13 11 10 11 12 14 16 17 19 20 21 22 23 24 25 25 25 26 27 27 28 29 30 31 32 32 32 32 31
2 2 4 6 4 2 2 4 2 2 2 3 2 3 8 11 10 9 9 10 11 9 8 4 1 2 2 2 3 5 4 4 6 6 6 6 6 6 7 8 10 13 14 15 16 17 17 17 17 16 16 17 17 17 17 16 14 12 11 10 10 12 13 15 17 18 19 20 21 22 23 24 24 24 25 26 26 27 28 28 29 30 30 31 32 32 32
2 2 5 4 4 5 10 8 4 3 3 6 5 4 8 8 7 9 9 10 12 8 4 2 2 2 2 3 5 5 5 5 6 6 7 7 8 10 11 13 14 16 17 17 18 18 17 17 17 17 17 18 18 17 16 14 13 11 10 11 12 14 15 15 16 16 17 19 21 21 22 23 24 24 24 25 25 25 27 28 29 30 30 31 31 31 32
2 3 4 4 3 8 11 6 3 3 4 7 7 4 6 6 5 9 10 10 10 5 4 5 4 4 2 3 6 6 6 6 5 6 8 9 11 12 14 14 15 16 18 18 18 18 18 18 18 18 19 19 18 17 15 13 12 11 11 12 13 13 14 15 15 15 16 18 19 20 21 22 23 23 24 24 24 24 25 27 29 29 30 31 31 30 31
2 3 5 6 6 8 6 5 4 1 3 6 6 2 5 7 5 8 9 8 7 6 6 7 6 5 3 5 6 5 7 7 7 7 8 11 13 14 13 14 15 16 17 16 17 18 19 20 20 20 19 19 17 15 13 12 11 11 11 12 13 13 14 14 14 14 15 16 17 18 20 21 21 23 23 23 23 23 24 25 28 29 29 30 31 31 31
5 5 5 4 5 5 4 4 4 1 3 7 8 2 7 6 5 7 8 8 8 7 8 7 6 6 6 6 6 6 7 8 9 10 10 12 14 15 14 13 13 14 16 17 18 20 21 22 21 20 19 18 16 14 12 11 11 10 11 12 13 14 14 14 14 14 15 16 17 18 19 20 21 21 22 22 23 23 24 25 27 28 28 28 31 32 32
7 8 5 3 4 5 5 5 6 5 4 6 4 6 7 4 6 7 8 9 9 7 8 7 6 7 7 6 4 4 6 7 8 12 14 14 14 14 14 14 14 15 18 19 20 22 23 22 21 21 19 17 15 13 12 11 11 11 12 13 13 14 14 14 14 14 15 16 17 17 18 19 21 21 20 21 22 23 24 26 27 28 28 28 30 32 31
5 5 4 3 5 5 6 5 3 5 4 2 5 6 3 5 8 8 7 8 7 7 9 8 7 8 8 6 3 4 7 8 9 12 13 12 11 12 12 13 15 18 19 21 21 22 23 23 22 21 19 17 15 13 12 12 12 12 12 13 14 14 14 13 14 14 15 15 16 17 18 18 20 21 20 20 22 23 24 26 27 28 28 28 29 31 32
2 2 3 3 6 4 11 11 2 1 4 6 5 3 2 5 7 7 7 7 6 7 8 8 8 9 8 6 5 5 6 7 8 11 13 13 15 16 15 16 19 21 21 23 24 24 24 24 23 21 19 17 15 13 12 12 12 12 13 14 15 14 14 13 13 13 14 15 15 16 17 17 19 21 21 20 21 22 24 25 27 27 27 27 28 30 31
4 4 6 5 3 4 11 12 5 6 8 5 5 5 4 4 5 5 6 6 7 8 8 9 9 9 8 7 7 6 6 7 8 10 12 15 17 18 19 20 21 23 24 25 25 24 24 24 23 21 19 17 15 13 13 12 12 13 14 14 15 14 13 13 13 13 14 15 15 16 16 17 18 20 21 21 22 23 23 24 25 27 27 26 27 29 30
4 6 6 3 3 5 9 7 6 9 10 6 6 6 4 3 4 5 5 6 7 8 9 9 8 8 9 9 8 8 8 9 9 11 14 18 20 21 22 22 23 25 27 26 24 24 24 24 23 21 18 16 15 14 13 13 13 14 14 14 14 13 13 13 13 14 14 14 15 15 15 16 18 19 20 22 23 23 23 23 24 25 26 25 26 27 29
4 4 4 3 2 4 8 8 6 7 8 7 6 6 4 4 5 6 5 6 7 8 9 8 7 8 9 9 9 9 8 8 10 12 15 17 20 21 21 22 23 25 24 23 23 23 24 24 23 21 18 16 15 14 14 14 14 14 14 14 14 13 13 12 12 13 15 15 15 15 15 16 17 18 20 21 23 23 23 24 24 24 25 25 25 26 27
3 4 3 5 4 5 9 9 7 6 7 6 5 6 6 6 6 7 7 7 7 7 8 9 9 10 10 10 9 9 8 8 10 11 13 17 20 22 24 25 25 24 23 22 23 24 25 25 24 21 18 16 15 14 14 14 14 14 14 14 14 13 12 12 12 13 15 16 16 16 16 17 17 18 19 20 22 23 23 23 24 23 23 23 23 26 28
4 4 4 3 1 1 5 7 6 7 9 8 5 5 6 5 5 6 7 7 6 6 7 9 11 10 10 10 9 8 8 8 9 11 15 19 21 23 24 25 24 24 25 25 25 26 27 26 24 21 18 16 15 15 15 14 13 13 14 14 13 13 12 12 13 13 14 16 17 18 18 18 18 19 19 20 22 22 22 23 24 24 24 25 26 29 31
3 4 4 3 4 5 6 7 8 9 9 7 6 7 7 6 6 7 6 6 7 7 8 9 9 9 11 10 9 9 9 8 9 13 18 21 22 22 23 23 25 26 27 27 27 27 27 25 23 21 18 16 16 15 14 13 13 13 13 13 13 13 12 12 13 13 14 16 17 18 19 19 19 19 19 19 21 23 23 22 22 24 26 28 28 29 30
4 4 6 5 2 4 6 8 12 12 9 6 6 7 7 7 8 8 7 7 8 9 11 10 8 8 11 11 9 9 9 10 13 17 19 20 19 19 21 22 24 26 26 27 27 26 25 23 22 19 17 16 16 15 14 13 14 14 13 13 13 13 12 12 13 13 15 16 17 18 19 20 21 21 20 18 18 21 22 21 20 21 24 26 27 27 28
6 6 8 8 6 6 7 8 10 9 7 7 8 9 9 10 10 8 8 9 9 9 11 13 12 10 11 13 12 9 10 15 19 19 19 18 18 20 22 22 23 24 25 24 25 25 24 22 20 18 17 16 15 15 14 14 14 14 13 13 13 13 12 12 12 13 15 16 17 18 18 19 20 23 24 23 20 18 18 18 19 20 21 23 22 22 24
5 6 9 7 5 6 9 9 8 6 7 8 10 11 11 11 10 9 9 10 10 9 9 12 16 16 14 16 15 10 11 17 21 21 21 21 21 22 24 24 24 25 26 26 26 25 23 21 19 18 16 15 14 14 14 14 14 14 13 13 13 12 11 11 12 13 15 16 17 17 18 18 18 20 23 25 25 22 19 17 18 20 19 17 16 17 19
7 6 4 5 6 9 9 6 5 6 7 8 9 10 11 10 10 10 9 9 11 12 10 10 14 18 18 18 17 14 14 19 22 20 19 18 17 20 23 24 26 26 27 26 25 22 20 19 18 17 15 14 13 14 14 14 15 14 14 13 13 12 11 11 12 13 15 16 16 17 17 18 18 19 19 21 24 26 26 23 21 18 14 12 12 16 20
8 4 3 5 5 9 5 3 7 10 9 9 8 8 10 11 12 13 13 13 14 15 13 11 14 17 17 18 18 17 17 18 17 15 15 16 17 20 23 25 25 24 23 22 20 18 18 17 16 15 14 12 13 14 15 15 15 15 14 13 12 12 11 11 13 14 14 15 16 16 16 17 17 18 18 17 19 22 25 26 25 22 19 16 16 18 21
7 5 5 3 6 9 8 8 11 13 10 8 9 9 11 15 15 14 14 16 17 17 18 18 18 16 15 17 18 16 15 14 12 12 15 18 20 21 22 22 21 20 20 19 18 18 17 16 15 14 13 12 13 14 15 15 15 15 14 13 12 11 11 11 13 14 14 15 15 15 16 16 16 16 17 17 18 18 20 21 23 24 26 26 24 24 25
7 8 8 8 11 14 13 10 10 12 12 9 9 10 10 11 11 10 10 12 13 14 17 20 19 15 13 15 15 13 11 11 12 13 16 17 18 18 17 17 18 19 19 18 17 17 16 15 15 14 13 12 14 15 14 15 15 15 14 13 12 11 11 11 12 13 14 14 14 14 15 15 15 16 16 17 18 18 18 18 20 22 26 28 28 27 27
9 8 8 10 13 14 10 6 6 9 12 10 8 8 8 8 8 9 10 11 9 9 12 15 18 17 15 14 14 13 11 12 13 15 16 17 16 16 16 17 17 16 16 16 16 16 16 15 15 14 13 12 14 14 15 16 16 15 14 13 12 12 12 12 12 13 13 13 13 13 14 14 15 15 16 16 16 17 18 19 19 20 23 26 27 28 28
10 6 7 9 11 10 9 9 9 10 10 8 7 7 8 9 9 10 11 10 8 8 11 12 13 14 15 15 15 15 14 13 14 15 16 16 17 17 18 18 16 14 14 16 17 16 15 15 16 15 13 12 13 15 15 16 16 15 14 13 12 12 12 12 12 12 13 13 13 13 14 14 14 14 15 15 16 16 16 17 18 19 21 23 24 25 27
10 6 8 10 10 9 11 12 11 10 10 8 8 8 8 8 9 11 11 9 7 9 11 10 9 10 13 14 14 13 12 11 12 13 15 16 17 17 18 18 16 15 15 16 16 15 15 16 17 15 12 12 14 15 15 16 15 15 14 13 12 12 11 11 11 12 12 13 13 14 14 14 13 12 13 15 16 16 16 17 18 19 20 21 21 22 23
11 6 7 9 8 8 10 10 9 10 11 8 8 10 10 9 11 13 12 10 9 10 10 9 9 11 13 12 12 11 10 11 12 13 14 15 15 15 15 15 14 13 12 13 13 14 15 16 16 13 11 12 14 15 15 16 15 15 14 13 12 12 12 11 11 11 12 12 13 13 13 13 12 12 13 14 14 15 15 16 18 18 18 19 21 21 20
10 10 11 11 8 7 9 10 9 11 12 10 10 11 11 10 10 12 12 10 9 8 7 9 11 13 13 13 13 13 13 12 11 11 12 13 13 12 12 11 10 10 10 11 12 13 15 16 15 12 10 12 14 15 15 16 15 15 14 13 12 12 12 12 11 11 11 12 13 12 11 12 12 13 13 13 13 14 15 16 17 18 18 18 19 19 18
12 13 14 13 10 9 10 11 10 10 11 10 9 9 9 8 9 10 10 9 7 6 8 10 12 13 14 15 15 15 15 11 7 8 11 12 11 10 9 8 9 9 10 11 13 14 15 15 14 11 11 13 14 15 15 16 15 14 13 13 13 13 13 12 12 12 12 12 12 11 11 12 12 12 12 12 12 13 14 15 15 16 17 18 18 18 17
10 11 12 12 10 10 11 11 11 10 10 11 10 9 9 9 9 8 8 7 7 7 8 10 13 15 16 15 14 14 13 9 6 8 11 11 9 8 7 7 7 8 10 12 14 15 15 14 13 13 13 14 15 16 16 15 15 14 13 13 13 13 13 13 12 12 12 12 11 11 11 12 11 11 11 11 12 12 12 13 13 14 15 17 18 18 18
7 7 9 10 9 10 11 11 10 9 9 9 9 7 5 5 6 7 6 5 6 8 10 13 15 15 14 13 13 13 12 9 8 9 9 8 8 7 6 6 7 9 11 13 12 10 9 10 10 12 13 14 15 15 14 14 13 13 13 13 13 13 13 13 13 12 12 11 11 12 11 11 11 11 10 10 10 10 11 12 12 12 13 15 16 18 18
8 9 9 9 7 6 5 5 6 5 4 3 3 2 3 5 6 7 8 8 9 11 13 15 15 13 12 11 11 11 10 9 8 7 7 6 6 6 6 7 9 9 10 10 8 5 4 5 7 8 9 11 12 13 12 13 13 13 13 14 14 14 14 14 13 13 12 11 11 12 11 10 11 10 9 9 9 9 10 11 11 12 13 13 15 16 18
6 5 5 5 1 2 2 1 0 2 4 3 4 4 6 10 11 12 12 12 12 14 15 15 15 15 14 13 12 11 10 8 7 6 6 5 5 6 7 9 11 11 11 10 8 8 8 9 10 10 11 13 14 14 14 14 14 14 14 15 15 14 14 14 13 13 12 12 11 11 11 10 10 10 9 8 9 9 9 10 10 11 12 13 14 15 16
4 3 2 2 4 6 6 5 5 4 4 6 7 7 9 13 15 15 15 14 14 15 16 17 16 15 14 13 12 11 9 8 7 6 5 5 5 7 9 11 12 13 12 12 12 12 12 13 14 15 16 18 18 18 17 15 15 15 15 15 15 15 15 14 13 13 13 12 11 11 11 10 10 10 9 9 8 8 9 10 10 11 12 13 13 14 15
4 3 4 4 5 5 5 6 8 8 7 7 9 10 13 15 17 16 15 14 13 14 16 17 16 13 12 12 12 10 8 7 5 4 4 4 4 6 9 11 12 11 10 11 11 11 11 12 14 16 16 15 15 15 15 15 15 15 15 15 15 15 15 14 14 14 13 13 12 12 11 10 10 10 9 9 9 9 9 10 10 11 12 12 13 14 14
3 4 4 5 5 5 6 7 8 10 11 11 11 12 13 15 15 15 14 13 12 12 12 12 12 12 11 11 10 9 7 5 3 2 2 3 5 5 7 9 10 9 8 9 11 11 11 12 14 15 13 10 9 10 11 13 14 15 15 15 15 15 15 14 14 14 14 13 13 12 11 10 10 10 10 9 10 9 10 10 11 11 12 12 13 13 14
4 5 6 6 5 6 8 9 10 11 12 12 12 12 11 12 14 15 15 14 13 12 11 10 11 11 10 8 7 6 5 3 1 1 2 5 6 6 7 9 11 10 9 11 12 11 11 12 12 12 10 8 7 9 11 12 13 14 15 15 15 14 14 15 15 14 14 13 13 13 12 11 12 12 11 11 11 10 10 11 12 11 12 13 13 13 14
5 6 7 6 5 7 10 11 11 11 12 12 13 12 12 12 15 16 16 14 13 12 11 10 9 8 7 6 4 3 3 2 2 2 4 6 7 8 9 10 9 7 6 8 9 9 10 11 11 10 10 10 11 12 12 12 13 14 14 14 14 14 14 15 15 14 14 14 14 13 12 12 12 12 12 12 12 12 12 12 13 13 13 13 14 14 14
6 7 7 7 8 10 11 11 11 11 10 11 12 12 13 13 13 13 13 13 11 10 9 9 7 6 5 4 3 2 3 3 3 3 5 7 7 6 5 5 5 4 5 7 8 8 7 7 8 9 10 12 13 14 13 13 14 14 14 14 14 14 14 15 15 15 15 15 14 14 13 13 13 13 13 13 14 14 14 14 14 15 15 15 15 15 16
8 9 10 11 12 11 11 11 11 12 12 14 14 13 12 12 11 10 10 10 10 9 8 7 6 5 4 2 2 2 2 2 3 4 5 5 5 5 6 6 7 7 7 8 9 9 8 7 7 8 10 12 13 13 13 14 14 14 13 13 14 14 14 15 15 15 15 15 14 14 14 14 14 14 14 14 15 15 16 16 16 16 16 16 17 17 17
9 10 12 12 12 12 12 14 16 17 17 16 13 10 9 10 10 9 9 8 8 7 6 5 5 4 3 2 1 1 2 3 4 5 5 5 4 5 6 6 7 7 7 7 8 9 9 9 9 10 12 13 13 13 13 13 14 14 14 14 14 14 15 15 15 15 15 15 15 15 15 15 15 15 15 16 16 17 17 18 18 18 17 17 18 18 18
9 9 10 11 12 13 15 17 17 16 13 10 8 7 8 9 9 8 7 7 6 6 5 4 3 2 1 0 1 2 4 4 4 2 0 1 2 4 5 6 6 8 9 10 10 10 10 11 12 13 13 13 13 13 13 13 14 14 14 14 15 15 15 15 16 16 16 16 16 16 16 16 16 16 16 17 18 18 18 19 20 19 18 18 18 18 18
10 9 10 12 14 15 16 16 13 10 8 7 8 9 9 8 7 7 7 6 6 5 4 3 2 1 1 1 1 2 3 3 2 1 1 1 4 6 6 8 9 10 11 12 13 13 13 13 13 13 12 12 12 13 13 13 14 14 15 15 16 16 16 16 16 16 17 17 17 17 17 17 17 17 17 18 18 18 19 19 20 20 19 19 19 19 19
12 12 12 12 13 13 12 11 9 6 7 10 11 10 9 8 7 7 6 5 4 3 2 1 0 1 1 2 2 2 3 3 3 3 4 6 8 8 8 9 10 10 11 12 13 13 12 11 11 12 12 12 13 13 13 14 14 15 16 16 17 16 16 17 17 16 17 17 17 17 17 17 17 17 18 19 19 20 20 20 21 20 20 20 20 20 20
11 11 10 9 10 10 9 8 8 8 10 11 10 9 8 8 7 6 5 4 3 2 1 1 2 2 2 2 3 3 3 4 4 5 7 8 9 9 9 9 10 10 11 11 12 12 11 10 11 11 12 12 13 14 14 14 15 16 16 16 16 16 16 16 16 16 17 17 17 17 18 18 19 19 20 20 21 21 21 21 21 21 21 21 21 21 21
9 9 9 10 10 10 10 10 11 11 11 10 9 8 8 7 6 5 3 2 1 1 3 3 1 1 2 3 4 4 4 5 6 8 9 10 10 9 9 10 10 11 11 11 12 12 12 12 12 12 13 13 14 15 15 15 16 16 16 16 16 16 16 16 16 17 17 17 18 19 19 19 20 20 21 21 22 22 22 21 21 21 21 21 21 21 21
11 11 12 12 12 12 12 11 11 10 9 8 8 7 6 5 4 4 3 1 1 2 3 3 2 1 2 3 3 3 4 6 8 10 11 11 11 10 10 11 11 12 12 12 13 13 13 13 13 14 14 14 15 15 16 16 16 17 17 17 16 16 17 17 17 17 17 18 18 19 19 19 20 21 21 21 21 21 21 21 21 21 21 21 21 21 21
Wind_Direction
228 170 189 182 171 208 208 211 226 211 177 170 177 209 216 185 204 252 247 151 200 241 229 204 216 222 215 218 227 228 234 240 226 209 210 212 200 186 186 191 196 196 199 202 202 205 205 203 204 207 208 211 213 216 220 221 220 221 222 223 226 229 229 227 242 272 295 308 313 316 318 319 320 321 322 323 324 324 324 325 325 325 326 326 326 325 324
202 181 210 167 166 216 242 241 241 223 180 174 186 220 224 206 229 263 274 257 249 250 234 214 214 210 206 227 248 255 254 245 233 219 215 211 196 192 198 201 202 201 201 201 200 201 203 203 205 207 210 213 215 219 222 224 225 226 227 228 227 226 223 229 253 281 295 304 308 311 314 316 316 317 317 318 318 318 319 319 321 322 323 324 325 324 322
215 228 273 124 165 208 235 250 251 227 126 186 217 231 227 210 248 254 261 269 267 263 239 212 225 219 210 246 265 261 249 234 219 215 216 207 201 205 210 209 204 202 200 199 199 201 204 206 208 210 213 216 218 222 224 227 230 231 229 223 217 216 222 241 267 286 296 302 307 309 311 312 312 312 313 314 314 314 315 316 318 319 321 323 324 323 321
217 190 150 140 92 59 257 258 247 188 170 223 233 222 194 209 229 238 247 254 258 265 178 154 246 245 226 241 246 244 246 222 192 201 204 203 208 210 211 207 198 197 200 199 202 206 209 210 212 215 218 219 220 224 227 229 230 225 216 209 208 217 235 259 277 288 295 300 304 307 308 309 309 310 311 312 314 314 316 317 318 319 321 321 321 321 320
191 102 142 128 70 3 263 255 221 187 205 236 244 226 212 212 202 200 223 235 247 260 111 198 253 245 231 240 233 225 227 206 196 208 203 206 216 212 204 202 197 201 206 207 209 212 214 216 218 222 223 224 227 229 226 222 214 206 203 204 214 231 251 270 282 290 296 300 303 305 306 307 307 309 310 312 314 315 317 318 318 319 320 320 320 320 319
168 274 105 112 136 241 252 261 172 183 202 224 233 237 231 213 191 199 226 247 262 251 215 232 244 237 228 231 221 212 206 188 194 213 214 214 221 218 211 208 210 213 216 219 221 222 223 225 227 229 230 230 228 222 212 205 201 201 206 212 226 245 261 275 285 292 297 300 302 303 305 306 307 309 311 313 314 316 316 317 318 319 320 320 320 319 318
135 68 99 170 216 230 240 331 205 193 196 205 218 248 253 228 216 221 236 251 247 233 228 235 244 246 242 233 221 214 198 179 174 185 210 216 209 213 216 212 218 221 220 222 222 221 223 224 223 223 221 216 208 200 195 197 199 203 211 222 238 255 268 279 286 291 295 297 300 303 306 308 309 311 312 313 314 316 316 317 318 319 319 319 318 318 318
123 119 185 220 248 321 285 253 197 120 109 151 157 286 266 239 217 206 219 237 240 235 236 240 224 224 253 285 252 229 208 188 169 170 196 205 198 207 212 209 213 217 214 212 211 210 210 209 207 205 200 195 192 190 191 196 201 208 220 235 252 264 273 280 284 288 293 296 301 305 307 308 310 311 312 312 314 317 317 317 318 317 317 317 317 317 318
163 170 214 246 338 314 275 256 192 157 170 160 159 237 260 246 205 183 196 228 239 237 217 176 144 114 54 343 286 254 230 211 195 195 206 205 205 215 220 220 219 217 212 210 210 209 204 199 196 195 192 191 192 192 194 200 209 220 236 250 262 269 275 279 283 289 294 298 302 305 306 308 309 310 310 311 315 318 317 316 317 317 316 316 316 316 317
125 152 232 263 278 261 259 242 186 182 167 158 159 200 267 271 213 185 190 214 229 216 149 156 151 106 86 275 266 254 235 213 202 222 232 227 223 224 225 224 222 219 217 215 214 209 200 195 195 194 194 194 194 196 201 208 220 234 248 258 265 273 277 280 286 292 297 300 302 303 305 306 307 308 310 312 315 317 316 315 315 315 315 314 314 316 316
126 174 225 236 237 252 255 222 219 234 145 140 113 70 285 267 214 186 186 200 210 189 165 162 142 128 182 248 259 248 226 209 199 213 230 233 231 230 229 226 223 220 218 213 208 202 198 197 197 195 196 197 198 202 209 218 230 243 254 263 270 276 279 284 291 297 301 301 301 302 303 305 306 307 309 312 315 315 314 313 313 313 314 313 313 315 315
207 209 228 236 241 261 247 206 211 215 140 111 91 28 271 250 206 184 173 185 203 189 168 158 153 169 202 229 242 226 203 200 204 206 214 224 227 226 225 223 220 216 209 202 198 199 201 202 200 198 199 200 203 209 217 226 239 250 259 266 271 275 280 289 297 301 302 300 300 301 302 304 305 306 309 312 314 315 314 313 312 312 312 312 312 313 314
224 223 238 263 261 252 226 193 177 162 113 81 114 227 241 202 193 197 178 189 202 178 160 166 184 206 214 216 225 201 179 190 211 216 219 223 223 223 221 217 212 208 205 204 205 206 207 207 204 202 203 204 207 214 223 234 246 255 261 266 270 275 283 292 296 298 298 298 300 301 302 304 304 305 309 312 313 314 314 313 312 311 311 313 311 311 312
225 228 238 282 278 237 175 160 176 152 129 144 215 224 208 162 182 199 198 204 198 172 176 190 201 221 228 217 198 182 184 193 207 215 219 217 215 216 215 213 211 207 203 203 206 209 209 207 207 206 206 207 212 220 231 242 251 258 262 267 271 276 283 289 290 293 294 295 298 300 302 304 304 306 311 313 312 314 314 313 313 311 312 313 312 309 309
154 209 217 246 272 222 140 126 104 217 189 205 205 191 183 177 176 182 200 215 200 179 194 209 215 228 237 228 211 207 208 210 211 214 212 208 210 211 210 212 212 206 202 205 207 209 208 206 208 208 208 211 217 226 237 246 253 259 263 267 272 276 282 286 289 291 293 294 297 300 303 306 306 307 311 313 313 315 315 314 313 311 312 313 311 307 307
145 184 212 211 219 176 148 141 160 213 210 192 155 156 186 199 181 172 191 219 210 189 198 217 223 231 242 238 225 217 222 227 226 222 217 213 215 215 214 216 214 207 206 208 208 208 207 206 208 210 211 215 222 229 239 247 253 258 262 266 270 276 281 286 290 292 292 295 299 302 306 309 307 308 313 314 314 314 315 314 311 309 309 310 308 306 305
176 192 215 205 132 158 175 174 183 205 214 204 166 166 180 191 187 175 181 215 217 200 204 218 223 229 237 237 230 220 221 225 225 223 221 218 219 220 220 220 215 210 210 210 207 206 207 208 211 213 215 219 225 233 240 246 252 256 260 264 269 276 282 287 291 292 293 297 302 305 309 310 309 310 314 313 312 312 313 311 308 305 305 306 304 302 301
251 235 204 168 133 172 195 211 213 206 218 220 192 188 206 203 185 175 182 207 212 201 202 212 223 231 234 236 236 229 226 231 230 227 227 226 223 221 221 219 215 211 209 209 206 205 207 210 213 215 218 222 230 238 243 247 251 255 259 264 269 275 282 287 290 293 296 300 304 307 311 312 310 311 312 311 310 310 311 308 305 302 302 302 301 299 298
243 251 201 168 173 186 195 213 231 237 243 235 195 193 218 210 187 188 199 213 217 204 194 201 220 231 230 231 238 236 228 232 235 232 232 231 225 220 219 219 214 207 203 204 206 207 209 212 214 216 220 225 233 241 245 247 250 254 257 263 269 274 282 288 291 295 300 304 308 311 313 313 311 311 312 310 307 306 306 306 303 300 298 297 296 295 296
204 232 226 173 113 255 221 217 227 238 241 230 194 197 223 223 215 216 210 206 211 206 198 204 218 232 234 229 231 236 232 231 233 232 233 233 229 222 219 216 210 203 203 206 209 211 213 214 214 216 221 228 235 242 246 246 248 252 257 261 267 275 282 288 293 298 303 307 310 312 313 312 311 311 312 311 307 305 306 305 301 296 294 293 293 294 295
218 242 222 112 40 321 268 237 232 236 233 218 201 208 222 231 243 246 235 218 213 213 217 214 210 225 239 235 226 230 236 236 233 233 235 236 232 223 215 210 206 205 208 211 212 214 215 214 214 218 223 229 237 242 245 246 246 250 255 259 265 274 282 288 294 301 304 307 310 311 311 312 312 311 313 314 309 305 306 306 298 291 291 293 294 296 297
230 220 194 166 166 251 242 227 229 232 224 208 210 217 218 224 233 236 242 246 239 232 234 227 207 217 239 241 228 227 235 239 238 238 238 237 231 221 212 207 205 207 212 214 214 215 215 213 214 219 224 229 236 241 243 244 246 249 252 257 265 272 281 289 297 303 306 308 310 310 310 312 314 314 315 315 309 301 301 301 293 287 288 292 295 299 300
229 206 200 195 193 221 235 229 226 222 203 195 214 228 230 231 232 224 226 240 247 246 242 231 214 214 236 240 232 229 238 242 244 245 244 237 227 216 208 202 201 205 209 212 212 212 211 211 214 219 224 229 235 240 241 241 244 247 250 256 265 272 281 290 299 304 305 306 308 309 309 312 314 315 317 318 316 312 308 302 295 292 293 294 297 301 302
229 215 210 197 186 224 242 236 225 212 189 189 211 228 232 234 233 220 214 226 235 241 247 237 222 218 229 239 236 231 239 244 245 245 243 236 226 216 207 201 201 203 204 207 209 208 208 210 214 219 223 228 233 237 238 239 241 245 249 256 264 274 284 292 299 301 302 303 305 306 308 312 314 315 317 319 320 323 324 319 309 304 302 300 303 309 311
231 234 195 161 192 228 243 253 253 234 201 187 207 226 228 227 228 221 215 224 231 231 240 251 238 226 225 234 236 231 234 243 244 240 234 228 218 210 205 203 204 205 205 206 206 205 207 211 215 220 224 228 232 234 234 236 239 243 248 255 264 274 284 293 297 298 299 300 302 303 306 310 313 313 315 316 317 319 324 328 328 324 320 317 318 320 320
238 246 109 121 216 236 237 264 271 257 227 195 203 229 229 220 222 223 221 226 232 230 229 241 248 240 232 234 238 236 237 244 246 235 219 209 205 205 206 206 206 205 203 201 200 202 209 213 216 223 228 229 231 231 231 234 238 242 247 254 262 273 284 291 293 295 296 297 299 302 305 307 309 310 311 312 312 313 318 325 330 332 333 335 336 334 329
226 208 146 148 253 253 231 221 243 258 250 204 193 221 230 222 223 230 234 236 239 238 235 237 245 250 245 240 240 239 237 236 232 220 211 206 205 207 208 205 201 195 193 194 197 203 211 214 219 228 232 229 227 228 229 232 236 241 246 252 260 271 281 287 289 291 294 294 296 300 303 304 306 308 309 309 309 307 309 314 317 318 321 328 336 341 338
221 208 182 194 234 246 241 225 226 251 260 237 209 217 227 223 222 231 241 243 240 240 241 241 240 241 242 239 234 229 224 220 214 210 210 207 205 204 200 192 188 187 189 193 199 206 211 216 223 231 232 225 224 226 228 231 235 240 244 251 260 269 277 284 288 289 290 292 295 298 301 302 303 304 304 305 306 305 306 306 305 306 310 319 328 336 341
229 216 194 208 229 243 255 247 215 232 251 250 229 219 218 217 221 229 235 237 233 233 240 240 235 233 236 235 226 216 211 214 213 209 205 201 196 191 186 181 182 185 190 195 202 209 214 219 227 233 230 222 222 225 226 229 234 239 242 248 258 267 275 281 285 287 288 292 296 298 298 295 295 299 302 303 305 305 305 305 305 305 308 315 323 330 336
238 202 182 216 232 238 249 251 238 236 243 240 227 223 218 215 225 239 241 234 225 229 235 234 229 229 230 228 223 220 218 218 213 204 197 191 186 183 182 180 175 178 191 202 208 214 219 223 230 233 228 219 219 224 226 230 234 238 241 247 255 264 272 278 281 284 288 292 294 294 292 291 293 298 301 303 304 305 304 305 306 307 309 314 319 322 326
249 196 182 214 225 219 227 238 239 241 241 227 220 230 226 213 225 243 246 235 223 228 233 228 220 221 223 221 219 218 214 208 199 190 184 183 183 185 187 187 186 192 204 212 215 220 223 227 232 235 229 219 220 224 226 230 234 236 239 245 254 261 267 273 276 279 281 283 285 287 287 289 293 297 298 299 302 303 305 306 307 308 311 314 315 318 324
256 239 224 231 225 216 228 236 235 241 244 227 213 224 225 215 221 235 241 237 228 225 224 219 216 218 215 207 198 191 184 178 175 174 175 179 182 187 194 201 208 218 224 225 227 230 230 233 238 240 232 222 222 225 229 233 235 236 239 245 253 259 263 267 271 273 273 274 278 282 283 286 290 293 293 295 299 302 304 305 306 308 311 311 313 320 329
241 248 249 245 229 220 234 237 230 234 240 231 219 225 228 220 219 230 239 239 230 218 212 214 216 210 195 183 176 169 161 156 156 163 172 178 184 192 203 214 225 234 236 237 240 241 242 245 249 249 240 231 228 228 232 235 235 236 241 247 251 256 261 266 269 270 271 272 275 278 280 282 286 288 289 292 297 299 301 302 305 308 312 312 314 324 332
223 232 243 243 229 215 224 232 228 229 238 241 236 232 230 224 222 230 237 235 223 213 210 209 203 189 176 170 166 160 155 150 153 172 182 186 191 200 210 220 230 238 241 243 246 249 253 260 264 261 250 242 237 234 234 235 235 237 243 247 250 253 259 264 265 265 268 271 275 277 277 277 280 284 287 292 294 294 295 300 304 308 311 314 318 326 332
224 232 246 250 237 218 217 226 229 224 228 237 240 235 231 228 224 226 231 226 214 209 201 186 174 167 163 160 157 159 163 166 170 180 185 187 190 197 206 218 231 245 252 254 257 263 268 271 271 263 253 247 243 239 234 231 233 239 245 246 248 253 258 261 263 264 268 272 274 273 272 275 280 284 286 288 288 288 291 297 303 306 309 314 319 325 331
219 223 240 248 243 230 222 227 236 236 231 236 245 244 234 220 211 206 201 192 184 176 165 158 154 153 153 154 158 165 171 168 160 161 167 174 182 193 209 227 241 258 268 271 274 277 275 272 269 262 253 247 241 236 230 231 238 245 246 246 247 251 255 258 260 263 266 268 268 269 271 275 279 282 283 282 283 285 290 295 301 307 309 313 318 323 327
222 220 235 249 250 236 226 238 257 256 238 239 274 259 167 146 149 154 152 149 150 151 151 150 147 144 145 151 157 159 159 157 153 154 160 172 188 203 222 239 247 256 265 274 283 290 282 277 276 267 253 241 233 230 233 241 248 250 248 247 248 250 253 255 257 260 262 263 263 265 269 272 274 277 280 280 280 284 290 295 301 308 311 315 319 321 325
230 215 233 252 245 104 102 82 316 213 173 122 67 74 127 136 132 131 130 130 136 143 145 143 141 139 138 138 137 139 144 151 156 161 169 184 203 217 229 243 250 252 255 266 283 291 288 285 281 270 255 245 242 245 249 252 253 252 250 248 247 247 250 252 254 258 260 260 259 261 265 269 273 278 281 281 281 285 291 296 301 307 312 316 319 321 325
215 162 137 100 91 97 99 87 70 74 132 134 110 101 119 129 129 125 122 123 132 141 141 136 134 134 134 135 137 142 150 156 160 169 180 195 215 234 246 256 262 266 274 284 290 290 286 282 278 272 265 258 256 255 253 250 250 250 248 247 247 246 248 250 253 257 259 258 258 261 264 266 271 277 280 283 286 288 291 295 300 304 308 312 316 319 325
188 136 103 97 99 99 94 81 65 60 80 116 125 124 128 131 129 124 120 123 132 142 143 140 138 137 139 142 142 142 145 153 161 167 179 200 233 261 273 278 281 287 294 296 293 289 284 278 273 273 271 265 257 250 245 245 248 248 246 246 247 247 247 249 251 254 257 257 256 260 264 267 270 275 278 282 286 289 291 295 298 302 305 309 312 317 323
114 101 97 98 96 93 94 97 88 77 76 89 107 121 131 134 130 125 122 125 129 134 137 137 134 133 135 138 137 134 136 145 152 160 206 250 267 272 275 288 305 318 318 307 299 294 286 278 273 271 267 258 250 249 251 251 250 248 246 247 248 247 248 249 251 253 256 257 257 260 265 268 270 274 278 281 284 287 292 294 296 299 303 306 309 315 320
95 105 105 98 93 97 102 105 101 89 81 84 97 110 121 127 126 125 125 127 128 126 122 120 120 124 128 130 128 125 124 121 91 303 276 278 278 268 268 293 318 328 318 308 307 300 287 281 276 266 252 248 262 277 276 266 256 251 250 250 250 249 249 251 253 255 256 256 257 261 265 267 271 275 278 281 284 288 291 293 294 296 300 303 307 312 316
103 110 108 104 107 109 107 107 107 101 90 87 95 105 114 121 125 127 127 127 127 125 120 116 115 117 118 117 113 105 94 69 12 327 308 298 291 280 279 297 320 328 312 309 317 311 293 283 272 258 253 264 281 288 285 272 261 256 254 254 254 254 253 253 255 257 257 256 258 262 264 265 269 274 278 281 286 289 291 292 294 296 299 302 305 308 312
105 111 115 118 118 116 113 111 110 107 100 98 102 109 113 116 120 124 125 123 121 119 117 115 114 112 108 102 88 62 43 27 2 331 316 314 318 321 324 331 340 336 313 308 314 315 309 298 284 273 273 278 283 285 282 272 263 259 260 260 260 257 256 257 258 258 258 260 262 265 266 268 270 275 279 282 286 288 290 291 294 296 299 301 303 306 308
105 112 120 122 119 118 119 118 117 119 119 115 109 107 109 111 112 114 115 116 115 112 111 110 109 106 102 94 74 45 9 342 319 301 290 295 315 338 348 341 330 321 311 302 297 296 297 298 297 295 293 290 287 284 278 270 264 263 265 266 265 262 260 262 263 262 263 265 266 267 270 272 274 277 280 283 285 287 290 292 293 294 296 299 301 303 305
103 111 118 118 114 114 119 122 123 124 122 115 105 100 104 110 110 108 108 108 109 107 105 104 102 98 94 85 50 344 323 320 313 298 282 273 281 303 322 327 324 322 320 312 302 296 293 293 295 299 299 295 291 284 275 269 267 268 268 269 269 267 266 267 268 268 269 269 270 271 274 276 277 279 282 283 284 286 289 291 291 292 294 296 298 300 303
99 101 104 106 108 113 119 122 122 120 116 111 105 106 110 112 113 112 110 108 108 105 102 101 100 94 82 46 323 311 318 332 343 344 316 318 329 328 328 325 320 318 316 309 302 299 299 298 297 297 295 290 285 280 275 272 271 271 271 272 272 271 271 272 273 273 273 273 274 275 276 277 279 281 282 282 284 286 288 290 291 292 294 296 298 300 302
105 105 106 110 114 116 119 119 114 106 105 113 120 122 121 118 114 110 107 106 107 105 100 99 103 118 177 261 287 293 300 315 336 63 113 346 333 325 318 312 310 308 305 301 297 297 297 296 294 292 289 284 280 277 275 275 275 274 275 275 274 274 275 275 275 275 276 276 275 276 278 279 281 283 283 284 285 287 288 288 290 292 295 298 299 300 303
111 112 112 114 115 116 116 113 105 100 114 123 123 123 125 123 114 108 106 104 101 99 101 100 105 202 221 242 265 270 262 263 266 270 286 305 312 313 310 309 308 305 302 300 299 298 297 295 291 286 283 281 279 277 276 277 278 277 278 278 278 277 277 277 277 277 277 276 276 278 280 281 283 285 285 286 287 287 288 289 291 293 295 298 299 300 303
114 113 111 112 112 111 112 113 116 123 129 128 124 125 132 128 116 106 102 99 94 90 55 325 296 265 238 237 249 259 264 270 280 292 302 306 307 307 308 308 308 307 305 303 302 301 299 294 289 285 282 281 280 279 279 280 280 280 280 280 279 278 278 278 277 277 277 278 280 282 282 283 285 286 286 287 287 287 288 289 291 293 295 297 298 300 303
125 122 118 114 110 108 110 117 122 126 128 126 123 126 132 130 120 110 101 94 81 29 2 354 334 215 224 251 259 260 270 284 295 303 309 309 307 307 308 307 305 304 303 301 300 299 298 295 290 288 286 284 283 283 283 283 283 283 281 280 279 279 278 278 277 277 278 280 281 281 281 283 285 285 285 286 287 287 288 290 292 294 296 297 298 300 302
122 120 118 116 111 107 108 114 120 123 126 127 126 126 130 131 128 123 115 98 40 356 350 347 332 285 278 282 275 274 287 296 299 302 304 304 303 301 301 300 299 299 299 298 297 296 296 295 294 292 290 288 287 287 286 285 284 283 283 282 282 281 280 280 280 281 282 282 282 282 284 285 286 286 286 287 288 289 291 293 294 295 296 296 297 299 301